• In Czech Republic
  • List of Countries
  • For 7 days
  • Water Temperature
  • Satellite Maps
  • Weather Map
  • Weather Widgets
  • user-avatar
    Login

    Hourly Weather Brest

    Today, 24 September, Monday

    Time Temperature Precipitation Wind Pressure Humidity
    00:00 +10°C° 2.5 mm 4 mps 740 mmHg 89%
    01:00 +9°C° 2.5 mm 5 mps 739 mmHg 90%
    02:00 +10°C° 0 mm 5 mps 737 mmHg 94%
    03:00 +10°C° 2.2 mm 5 mps 737 mmHg 93%
    04:00 +11°C° 2.2 mm 6 mps 736 mmHg 93%
    05:00 +11°C° 2.2 mm 6 mps 736 mmHg 92%
    06:00 +10°C° 0.5 mm 7 mps 737 mmHg 90%
    07:00 +9°C° 0.5 mm 8 mps 738 mmHg 88%
    08:00 +7°C° 0.5 mm 9 mps 739 mmHg 86%
    09:00 +8°C° 0.2 mm 9 mps 740 mmHg 84%
    10:00 +8°C° 0.2 mm 9 mps 742 mmHg 81%
    11:00 +10°C° 0.2 mm 9 mps 743 mmHg 78%
    12:00 +10°C° 0.4 mm 9 mps 744 mmHg 75%
    13:00 +11°C° 0.4 mm 9 mps 744 mmHg 72%
    14:00 +11°C° 0.4 mm 9 mps 745 mmHg 69%
    15:00 +11°C° 0.3 mm 8 mps 745 mmHg 69%
    16:00 +10°C° 0.3 mm 8 mps 746 mmHg 70%
    17:00 +10°C° 0.3 mm 7 mps 746 mmHg 70%
    18:00 +9°C° 0.1 mm 7 mps 746 mmHg 72%
    19:00 +9°C° 0.1 mm 6 mps 747 mmHg 75%
    20:00 +8°C° 0.1 mm 6 mps 747 mmHg 77%
    21:00 +8°C° 0.1 mm 6 mps 748 mmHg 78%
    22:00 +7°C° 0.1 mm 6 mps 748 mmHg 80%
    23:00 +7°C° 0.1 mm 6 mps 749 mmHg 81%

    Tomorrow, 25 September, Tuesday

    Time Temperature Precipitation Wind Pressure Humidity
    00:00 +5°C° 0 mm 6 mps 750 mmHg 82%
    01:00 +5°C° 0 mm 6 mps 750 mmHg 83%
    02:00 +4°C° 0 mm 6 mps 751 mmHg 84%
    03:00 +4°C° 0 mm 6 mps 752 mmHg 84%
    04:00 +4°C° 0 mm 6 mps 752 mmHg 84%
    05:00 +3°C° 0 mm 5 mps 753 mmHg 84%
    06:00 +4°C° 0 mm 6 mps 753 mmHg 81%
    07:00 +4°C° 0 mm 6 mps 754 mmHg 78%
    08:00 +5°C° 0 mm 6 mps 755 mmHg 76%
    09:00 +7°C° 0 mm 6 mps 755 mmHg 69%
    10:00 +8°C° 0 mm 7 mps 756 mmHg 63%
    11:00 +10°C° 0 mm 7 mps 756 mmHg 57%
    12:00 +10°C° 0.2 mm 7 mps 756 mmHg 55%
    13:00 +10°C° 0.2 mm 7 mps 757 mmHg 54%
    14:00 +11°C° 0.2 mm 7 mps 757 mmHg 52%
    15:00 +10°C° 0.1 mm 7 mps 757 mmHg 54%
    16:00 +10°C° 0.1 mm 7 mps 758 mmHg 56%
    17:00 +9°C° 0.1 mm 6 mps 758 mmHg 58%
    18:00 +8°C° 0 mm 5 mps 759 mmHg 62%
    19:00 +7°C° 0 mm 5 mps 759 mmHg 66%
    20:00 +6°C° 0 mm 4 mps 760 mmHg 70%
    21:00 +6°C° 0 mm 4 mps 761 mmHg 71%
    22:00 +5°C° 0 mm 4 mps 761 mmHg 73%
    23:00 +5°C° 0 mm 4 mps 762 mmHg 74%

    Day after tomorrow, 26 September, Wednesday

    Time Temperature Precipitation Wind Pressure Humidity
    00:00 +4°C° 0 mm 3 mps 762 mmHg 77%
    01:00 +4°C° 0 mm 3 mps 763 mmHg 79%
    02:00 +3°C° 0 mm 3 mps 763 mmHg 82%
    03:00 +3°C° 0 mm 3 mps 763 mmHg 83%
    04:00 +4°C° 0 mm 2 mps 763 mmHg 84%
    05:00 +4°C° 0 mm 2 mps 764 mmHg 85%
    06:00 +3°C° 0 mm 3 mps 764 mmHg 81%
    07:00 +4°C° 0 mm 3 mps 764 mmHg 78%
    08:00 +5°C° 0 mm 3 mps 764 mmHg 74%
    09:00 +7°C° 0 mm 3 mps 764 mmHg 66%
    10:00 +8°C° 0 mm 4 mps 763 mmHg 58%
    11:00 +10°C° 0 mm 5 mps 763 mmHg 50%
    12:00 +12°C° 0 mm 5 mps 762 mmHg 49%
    13:00 +11°C° 0 mm 6 mps 762 mmHg 48%
    14:00 +13°C° 0 mm 6 mps 761 mmHg 47%
    15:00 +13°C° 0 mm 6 mps 761 mmHg 50%
    16:00 +12°C° 0 mm 5 mps 760 mmHg 54%
    17:00 +12°C° 0 mm 5 mps 759 mmHg 57%
    18:00 +12°C° 0 mm 5 mps 759 mmHg 58%
    19:00 +10°C° 0 mm 5 mps 759 mmHg 59%
    20:00 +10°C° 0 mm 5 mps 758 mmHg 60%
    21:00 +9°C° 0 mm 6 mps 758 mmHg 61%
    22:00 +9°C° 0 mm 6 mps 758 mmHg 62%
    23:00 +9°C° 0 mm 6 mps 757 mmHg 64%

    27 September, Thursday

    Time Temperature Precipitation Wind Pressure Humidity
    00:00 +9°C° 0.2 mm 6 mps 757 mmHg 65%
    01:00 +9°C° 0.2 mm 6 mps 756 mmHg 66%
    02:00 +9°C° 0.2 mm 6 mps 756 mmHg 67%
    03:00 +10°C° 0.1 mm 6 mps 755 mmHg 66%
    04:00 +10°C° 0.1 mm 6 mps 755 mmHg 64%
    05:00 +10°C° 0.1 mm 7 mps 754 mmHg 63%
    06:00 +10°C° 0 mm 7 mps 754 mmHg 63%
    07:00 +10°C° 0 mm 7 mps 754 mmHg 64%
    08:00 +10°C° 0 mm 8 mps 754 mmHg 65%
    09:00 +12°C° 0 mm 8 mps 754 mmHg 64%
    10:00 +13°C° 0 mm 8 mps 754 mmHg 64%
    11:00 +15°C° 0 mm 8 mps 754 mmHg 64%
    12:00 +16°C° 0 mm 8 mps 754 mmHg 64%
    13:00 +17°C° 0 mm 8 mps 753 mmHg 63%
    14:00 +18°C° 0 mm 8 mps 753 mmHg 63%
    15:00 +18°C° 0 mm 7 mps 753 mmHg 65%
    16:00 +17°C° 0 mm 7 mps 753 mmHg 67%
    17:00 +17°C° 0 mm 6 mps 753 mmHg 70%
    18:00 +16°C° 0 mm 6 mps 754 mmHg 73%
    19:00 +16°C° 0 mm 6 mps 754 mmHg 76%
    20:00 +15°C° 0 mm 5 mps 754 mmHg 79%
    21:00 +14°C° 0 mm 5 mps 754 mmHg 81%
    22:00 +14°C° 0 mm 5 mps 754 mmHg 83%
    23:00 +13°C° 0 mm 5 mps 754 mmHg 86%

    28 September, Friday

    Time Temperature Precipitation Wind Pressure Humidity
    00:00 +13°C° 0 mm 4 mps 754 mmHg 88%
    01:00 +12°C° 0 mm 4 mps 753 mmHg 90%
    02:00 +12°C° 0 mm 4 mps 753 mmHg 93%
    03:00 +12°C° 0 mm 4 mps 753 mmHg 93%
    04:00 +12°C° 0 mm 4 mps 752 mmHg 94%
    05:00 +12°C° 0 mm 4 mps 752 mmHg 94%
    06:00 +12°C° 0 mm 5 mps 751 mmHg 91%
    07:00 +13°C° 0 mm 5 mps 751 mmHg 88%
    08:00 +14°C° 0 mm 6 mps 750 mmHg 85%
    09:00 +16°C° 0 mm 7 mps 750 mmHg 78%
    10:00 +17°C° 0 mm 7 mps 750 mmHg 71%
    11:00 +20°C° 0 mm 7 mps 749 mmHg 64%
    12:00 +21°C° 0 mm 7 mps 749 mmHg 62%
    13:00 +21°C° 0 mm 7 mps 748 mmHg 59%
    14:00 +22°C° 0 mm 7 mps 748 mmHg 56%
    15:00 +21°C° 0.1 mm 6 mps 748 mmHg 59%
    16:00 +21°C° 0.1 mm 6 mps 747 mmHg 61%
    17:00 +20°C° 0.1 mm 5 mps 747 mmHg 63%
    18:00 +17°C° 0.1 mm 5 mps 747 mmHg 68%
    19:00 +17°C° 0.1 mm 4 mps 748 mmHg 72%
    20:00 +14°C° 0.1 mm 4 mps 748 mmHg 77%
    21:00 +14°C° 0.2 mm 4 mps 748 mmHg 79%
    22:00 +13°C° 0.2 mm 3 mps 748 mmHg 80%
    23:00 +12°C° 0.2 mm 3 mps 749 mmHg 82%

    29 September, Saturday

    Time Temperature Precipitation Wind Pressure Humidity
    00:00 +12°C° 0.1 mm 3 mps 749 mmHg 83%
    01:00 +11°C° 0.1 mm 3 mps 749 mmHg 84%
    02:00 +11°C° 0.1 mm 3 mps 750 mmHg 85%
    03:00 +10°C° 0.1 mm 3 mps 750 mmHg 85%
    04:00 +9°C° 0.1 mm 3 mps 750 mmHg 84%
    05:00 +9°C° 0.1 mm 3 mps 751 mmHg 83%
    06:00 +8°C° 0 mm 4 mps 751 mmHg 81%
    07:00 +7°C° 0 mm 4 mps 752 mmHg 79%
    08:00 +7°C° 0 mm 5 mps 753 mmHg 76%
    09:00 +8°C° 0 mm 5 mps 753 mmHg 71%
    10:00 +9°C° 0 mm 5 mps 754 mmHg 66%
    11:00 +10°C° 0 mm 5 mps 755 mmHg 61%
    12:00 +12°C° 0 mm 5 mps 755 mmHg 55%
    13:00 +11°C° 0 mm 6 mps 755 mmHg 50%
    14:00 +13°C° 0 mm 6 mps 756 mmHg 44%
    15:00 +12°C° 0 mm 5 mps 756 mmHg 45%
    16:00 +12°C° 0 mm 5 mps 756 mmHg 46%
    17:00 +11°C° 0 mm 4 mps 757 mmHg 47%
    18:00 +10°C° 0 mm 4 mps 757 mmHg 50%
    19:00 +8°C° 0 mm 3 mps 758 mmHg 54%
    20:00 +7°C° 0 mm 2 mps 759 mmHg 58%
    21:00 +7°C° 0 mm 2 mps 759 mmHg 60%
    22:00 +6°C° 0 mm 2 mps 759 mmHg 63%
    23:00 +6°C° 0 mm 2 mps 760 mmHg 65%
    Show more